Lancaster, PA

11:11 PM EST on February 17, 2018 (GMT -0500)
Lancaster

Weather History for KLNS - November, 2010

Change the Weather History Date:

Wednesday, November 24, 2010

  Actual Average Record
Temperature  
Mean Temperature 40 °F -  
Max Temperature 46 °F 51 °F 69 °F (1979)
Min Temperature 34 °F 32 °F 17 °F (1976)
Degree Days  
Heating Degree Days 25    
Moisture  
Dew Point 25 °F    
Average Humidity 53    
Maximum Humidity 65    
Minimum Humidity 39    
Precipitation  
Precipitation 0.00 in - - ()
Sea Level Pressure  
Sea Level Pressure 30.22 in    
Wind  
Wind Speed 11 mph (NW)    
Max Wind Speed 17 mph    
Max Gust Speed 26 mph    
Visibility 10 miles    
Events      
Averages and records for this station are not official NWS values.
T = Trace of Precipitation, MM = Missing Value Source: NWS Daily Summary

Daily Weather History Graph

Daily Weather History Graph

Search for Another Location

Airport or City:

Trip Planner

Search our weather history database for the weather conditions in past years. The results will help you decide how hot, cold, wet, or windy it might be!

Date:

Astronomy

Nov. 24, 2010 Rise Set
Actual Time 7:00 AM EST 4:42 PM EST
Civil Twilight 6:31 AM EST 5:12 PM EST
Nautical Twilight 5:57 AM EST 5:45 PM EST
Astronomical Twilight 5:25 AM EST 6:18 PM EST
Moon 7:27 PM EST (11/24) 9:46 AM EST (11/24)
Length of Visible Light 10h 41m
Length of Day
9h 42m
Waning Gibbous, 90% of the Moon is Illuminated
Nov 24
Waning Gibbous
Nov 28
Last Quarter
Dec 5
New
Dec 13
First Quarter
Dec 21
Full

Hourly Weather History & Observations

Time (EST) Temp. Windchill Dew Point Humidity Pressure Visibility Wind Dir Wind Speed Gust Speed Precip Events Conditions
12:53 AM 45.0 °F 37.6 °F 28.0 °F 52% 30.07 in 10.0 mi NW 17.3 mph 26.5 mph N/A   Clear
1:53 AM 43.0 °F 35.7 °F 27.0 °F 53% 30.09 in 10.0 mi NW 15.0 mph 21.9 mph N/A   Clear
2:53 AM 39.9 °F 33.4 °F 28.0 °F 63% 30.11 in 10.0 mi West 10.4 mph - N/A   Clear
3:53 AM 37.9 °F 32.1 °F 27.0 °F 65% 30.14 in 10.0 mi NW 8.1 mph - N/A   Clear
4:53 AM 37.9 °F 30.5 °F 24.1 °F 57% 30.15 in 10.0 mi NNW 11.5 mph - N/A   Clear
5:53 AM 37.0 °F 28.9 °F 21.9 °F 54% 30.19 in 10.0 mi NNW 12.7 mph - N/A   Clear
6:53 AM 34.0 °F 26.6 °F 23.0 °F 64% 30.22 in 10.0 mi WNW 9.2 mph - N/A   Clear
7:53 AM 36.0 °F 29.6 °F 24.1 °F 62% 30.24 in 10.0 mi WNW 8.1 mph - N/A   Clear
8:53 AM 39.0 °F 32.3 °F 24.1 °F 55% 30.25 in 10.0 mi NW 10.4 mph - N/A   Clear
9:53 AM 42.1 °F 34.9 °F 23.0 °F 47% 30.26 in 10.0 mi NNW 13.8 mph 21.9 mph N/A   Clear
10:53 AM 43.0 °F 35.1 °F 21.9 °F 43% 30.27 in 10.0 mi North 17.3 mph 23.0 mph N/A   Clear
11:53 AM 45.0 °F 39.3 °F 23.0 °F 42% 30.26 in 10.0 mi North 11.5 mph 19.6 mph N/A   Clear
12:53 PM 46.0 °F 42.5 °F 24.1 °F 42% 30.25 in 10.0 mi Variable 6.9 mph - N/A   Clear
1:53 PM 46.0 °F 40.6 °F 21.9 °F 39% 30.23 in 10.0 mi North 11.5 mph - N/A   Clear
2:53 PM 45.0 °F 40.6 °F 24.1 °F 44% 30.24 in 10.0 mi NW 8.1 mph - N/A   Clear
3:53 PM 45.0 °F 41.2 °F 24.1 °F 44% 30.25 in 10.0 mi NW 6.9 mph - N/A   Clear
4:53 PM 42.1 °F 38.4 °F 25.0 °F 51% 30.25 in 10.0 mi NW 5.8 mph - N/A   Clear
5:53 PM 41.0 °F 37.1 °F 24.1 °F 51% 30.26 in 10.0 mi NW 5.8 mph - N/A   Clear
6:53 PM 39.9 °F 36.7 °F 26.1 °F 58% 30.26 in 10.0 mi WNW 4.6 mph - N/A   Clear
7:53 PM 39.9 °F 36.7 °F 26.1 °F 58% 30.26 in 10.0 mi West 4.6 mph - N/A   Clear
8:53 PM 39.9 °F - 25.0 °F 55% 30.25 in 10.0 mi Calm Calm - N/A   Clear
9:53 PM 41.0 °F - 25.0 °F 53% 30.24 in 10.0 mi Calm Calm - N/A   Mostly Cloudy
10:53 PM 39.0 °F 36.8 °F 27.0 °F 62% 30.25 in 10.0 mi WNW 3.5 mph - N/A   Mostly Cloudy
11:53 PM 39.0 °F 36.8 °F 28.0 °F 65% 30.26 in 10.0 mi West 3.5 mph - N/A   Overcast